Location: Gälforsberget
(66.6500°N, 22.4167°E)
Time: 22:56:19
(UTC+00:00)

Cosmos 2100 Rocket - Pass Details

Date: 11 April 2026
Orbit: 956 x 999 km, 82.9° (Epoch: 13 May)

Event Time Altitude Azimuth Distance (km) Brightness Sun altitude
Exits shadow 23:00:23 20° 203° (SSW) 2,072 5.1 -14.6°
Maximum altitude 23:04:53 81° 290° (WNW) 980 4.0 -14.5°
Drops below altitude 10° 23:11:07 10° 18° (NNE) 2,719 7.7 -14.4°
Sets 23:13:39 0° 19° (NNE) 3,674 8.9 -14.4°
